Back to catalog

THOR ABLESTAR DEB

AliveLEO
NORAD 119·DEBRIS·🇺🇸 United States

Launched Jun 29, 1961 from Cape Canaveral Space Force Station

Loading…

Next Passes (next 24 hours)

TLE

FreshSource: Space-Track

Epoch: Sep 9, 2026, 22:40 UTC

1 00119U 61015D   26252.94452488  .00000360  00000-0  17128-3 0  9996
2 00119  66.7267 168.0066 0102850 201.8878 157.7811 14.27421130370414

Track THOR ABLESTAR DEB in real time with AllMySat

Download on the App Store